TITAN 3C TRANSTAGE R/B, 2770

Orbit data source: Space-Track

TITAN 3C TRANSTAGE R/B, 2770 is space debris in HEO originally from a launch on Fri, 28 Apr 1967 UTC launched from the Air Force Eastern Test Range (AFETR). Debris objects in space refer to the collection of defunct objects orbiting the Earth. Examples of debris include non-operational satellites, rocket bodies, and fragments generated from explosions, collisions, or faulty payload assembly.

Loading next visibility...
TITAN 3C TRANSTAGE R/B details
Identifier
2770, 1967-040F
Orbit
HEO
Last TLE updatein 1 day
Origin
Flag of USUSAF SSD (US)
ManufacturerMartin Marietta
MissionSpacecraft
Bus & MotorTRANSTAGE, Unknown motor
Mass3,103 kg wet, 3,103 kg dry
Launch date (UTC)
1967-04-28 (58 years ago)
Launch vehicleUnknown
Launch site
Air Force Eastern Test Range (AFETR)
Object type
Payload
Rocket body
Debris
Shape & HBRCyl + 2 Nozzle, 4.6 m
Radar Cross Section14.974 m², Large (>1 m²)

Expand to show TLE details & history

TLE from in 1 day
0 TITAN 3C TRANSTAGE R/B
1  2770U 67040F   25039.52537787 -.00000552  00000-0  00000+0 0  9998
2  2770  18.0932 221.8124 7835427 327.9227 359.2529  0.50944836101971
Epoch: 2025-02-08T12:36Z
Definitive object data (Epoch: 2025-02-08T12:36:32.647Z)
Latitude-9.09397°
Longitude-135.52484°
Altitude8,078.343 km
Speed7.009 km/s
True Right ascension12h 49m 55s
True Declination-9° 04' 03"
Sunlit
Object was in daylight at TLE epoch
Visualization TLE readout
Latitude13.66264°
Longitude25.32246°
Altitude94,793.432 km
Speed1.364 km/s
Apparent Right ascension23h 22m 05s
Apparent Declination11° 30' 50"
Sunlit
Object is in daylight
Visualization observer readout
Local Sidereal Time04:39:11
Azimuth272.146° WNW
Elevation15.542°
Doppler factor1
Orbital elements
Apogee altitude111,735.776 km
Perigee altitude7,956.602 km
Semi-major axis66,224.326 km
Eccentricity0.7835427
Inclination18.0932°
RAAN221.8124°
Arg. of periapsis327.9227°
True anomaly350.13555°
Mean anomaly359.2529°
Eccentric anomaly356.55602°
Mean motion0.12736 °/min
BSTARUnknown
Orbital period2826.74 mins
Loading maneuver chart data...
Loading historical data...
Loading historical data...
Loading historical data...
Loading historical data...
Loading historical data...
Loading historical data...
Loading historical data...

TITAN 3C TRANSTAGE R/B Visibility forecast

Observer location: undefined°, undefined

Span
Click to sort rows by Start time (UTC) header in descending order
Start Az.
Max El. time (UTC)
Max El. Az.
Max El.
End time (UTC)
End Az.
31 mins2025-02-07 02:29:47.065Z272.14° WNW2025-02-07 02:29:47.065Z272.14° WNW14.998°2025-02-07 03:00:47.065Z276.175° WNW
526 mins2025-02-07 17:43:47.065Z91.3° ESE2025-02-07 23:28:47.065Z176.431° S38.437°2025-02-08 02:29:47.065Z231.302° WSW
|